This is the latest recevied weather packets stored in our database for station/object KF4WSW-13. If no packets are shown the sender has not sent any weather packets the latest 1 day(s).
| Time | Temp. | Humidity | Pressure | Rain* | Wind** | Luminosity | Snow |
|---|---|---|---|---|---|---|---|
| 1836274755 | 26.67° C | 84% | 1014.4 hPa | 0 mm | 1.34 m/s, 61° | 0 W/m² | - |
| 1836274453 | 26.67° C | 84% | 1014.5 hPa | 0 mm | 0.89 m/s, 311° | 0 W/m² | - |
| 1836274306 | 26.67° C | 85% | 1014.6 hPa | 0 mm | 0.89 m/s, 297° | 0 W/m² | - |
| 1836274151 | 26.67° C | 84% | 1014.6 hPa | 0 mm | 1.34 m/s, 87° | 0 W/m² | - |
| 1778051008 | 22.78° C | 79% | 1014 hPa | 0 mm | 0.45 m/s, 195° | 0 W/m² | - |
| 1778050706 | 22.78° C | 79% | 1013.8 hPa | 0 mm | 0.89 m/s, 202° | 0 W/m² | - |
| 1778050404 | 22.78° C | 79% | 1013.9 hPa | 0 mm | 0.89 m/s, 184° | 0 W/m² | - |
| 1778050100 | 22.78° C | 79% | 1013.8 hPa | 0 mm | 0.89 m/s, 184° | 0 W/m² | - |
| 1778049795 | 22.78° C | 79% | 1014 hPa | 0 mm | 0.45 m/s, 189° | 0 W/m² | - |
| 1778049493 | 22.78° C | 79% | 1013.8 hPa | 0 mm | 1.34 m/s, 201° | 0 W/m² | - |
| 1778049190 | 22.78° C | 80% | 1013.7 hPa | 0 mm | 0.89 m/s, 160° | 0 W/m² | - |
| 1778048889 | 22.78° C | 79% | 1014 hPa | 0 mm | 0.89 m/s, 192° | 0 W/m² | - |
| 1778048586 | 22.78° C | 79% | 1014.2 hPa | 0 mm | 1.34 m/s, 115° | 0 W/m² | - |
| 1778048281 | 22.78° C | 78% | 1014.1 hPa | 0 mm | 0.89 m/s, 154° | 0 W/m² | - |
| 1778047978 | 22.78° C | 78% | 1013.8 hPa | 0 mm | 0.89 m/s, 126° | 0 W/m² | - |
| 1778047677 | 22.78° C | 78% | 1014.1 hPa | 0 mm | 0.45 m/s, 178° | 0 W/m² | - |
| 1778047374 | 22.78° C | 79% | 1014.4 hPa | 0 mm | 1.34 m/s, 161° | 0 W/m² | - |
| 1778047071 | 22.78° C | 79% | 1014.3 hPa | 0 mm | 0.89 m/s, 222° | 0 W/m² | - |
| 1778046767 | 22.78° C | 79% | 1014.4 hPa | 0 mm | 0.45 m/s, 224° | 0 W/m² | - |
| 1778046465 | 22.78° C | 79% | 1014.3 hPa | 0 mm | 0.89 m/s, 152° | 0 W/m² | - |
| 1778046161 | 22.78° C | 80% | 1014.5 hPa | 0 mm | 0.89 m/s, 157° | 0 W/m² | - |
| 1778045858 | 22.78° C | 81% | 1014.5 hPa | 0 mm | 0.89 m/s, 216° | 0 W/m² | - |
| 1778045557 | 22.78° C | 83% | 1014.6 hPa | 0 mm | 0.89 m/s, 85° | 0 W/m² | - |
| 1778045254 | 22.22° C | 86% | 1014.3 hPa | 0 mm | 0.89 m/s, 219° | 0 W/m² | - |
| 1778044953 | 22.78° C | 89% | 1014.5 hPa | 0 mm | 0.89 m/s, 205° | 0 W/m² | - |
* Rain latest hour (hover to see other rain measurements)
** Current wind speed in m/s (hover to see current wind gust speed)